Blackwell, OK

9:02 PM CDT on September 25, 2016 (GMT -0500)
Blackwell

Weather History for KBKN - December, 2012

Change the Weather History Date:

Sunday, December 2, 2012

  Actual Average (KPNC) Record (KPNC)
Temperature  
Mean Temperature 52 °F -  
Max Temperature 69 °F 58 °F 75 °F (1956)
Min Temperature 35 °F 33 °F 1 °F (2006)
Degree Days  
Heating Degree Days 13    
Growing Degree Days 2 (Base 50)    
Moisture  
Dew Point 43 °F    
Average Humidity 75    
Maximum Humidity 100    
Minimum Humidity 35    
Precipitation  
Precipitation 0.00 in - - ()
Sea Level Pressure  
Sea Level Pressure 29.94 in    
Wind  
Wind Speed 6 mph (SSE)    
Max Wind Speed 14 mph    
Max Gust Speed 17 mph    
Visibility 7 miles    
Events      
Averages and records for this station are not official NWS values.
T = Trace of Precipitation, MM = Missing Value Source: NWS Daily Summary

Daily Weather History Graph

Daily Weather History Graph

Search for Another Location

Airport or City:

Trip Planner

Search our weather history database for the weather conditions in past years. The results will help you decide how hot, cold, wet, or windy it might be!

Date:

Astronomy

Dec. 02, 2012 Rise Set
Actual Time 7:24 AM CST 5:13 PM CST
Civil Twilight 6:56 AM CST 5:41 PM CST
Nautical Twilight 6:24 AM CST 6:13 PM CST
Astronomical Twilight 5:52 AM CST 6:45 PM CST
Moon 8:59 PM CST (12/2) 10:17 AM CST (12/2)
Length of Visible Light 10h 45m
Length of Day
9h 48m
Waning Gibbous, 85% of the Moon is Illuminated
Dec 2
Waning Gibbous
Dec 6
Last Quarter
Dec 13
New
Dec 19
First Quarter
Dec 28
Full

Hourly Weather History & Observations

Time (CST) Temp. Windchill Dew Point Humidity Pressure Visibility Wind Dir Wind Speed Gust Speed Precip Events Conditions
12:15 AM 41.0 °F 38.0 °F 39.2 °F 93% 29.93 in 10.0 mi WNW 4.6 mph - N/A   Clear
12:35 AM 39.2 °F 35.0 °F 35.6 °F 87% 29.93 in 10.0 mi West 5.8 mph - N/A   Clear
12:55 AM 39.2 °F 34.2 °F 37.4 °F 93% 29.93 in 9.0 mi WNW 6.9 mph - N/A   Clear
1:15 AM 41.0 °F 35.8 °F 37.4 °F 87% 29.93 in 7.0 mi WNW 8.1 mph - N/A   Clear
1:55 AM 39.2 °F 37.0 °F 37.4 °F 93% 29.94 in 6.0 mi WNW 3.5 mph - N/A   Clear
2:15 AM 39.2 °F - 37.4 °F 93% 29.95 in 5.0 mi Calm Calm - N/A   Clear
2:35 AM 39.2 °F - 37.4 °F 93% 29.95 in 5.0 mi Calm Calm - N/A   Clear
2:55 AM 37.4 °F - 35.6 °F 93% 29.95 in 5.0 mi Calm Calm - N/A   Clear
3:15 AM 37.4 °F 34.9 °F 35.6 °F 93% 29.95 in 5.0 mi West 3.5 mph - N/A   Partly Cloudy
3:35 AM 37.4 °F 34.9 °F 35.6 °F 93% 29.96 in 4.0 mi West 3.5 mph - N/A   Scattered Clouds
3:55 AM 37.4 °F 33.8 °F 35.6 °F 93% 29.96 in 5.0 mi West 4.6 mph - N/A   Mostly Cloudy
4:15 AM 37.4 °F 33.8 °F 35.6 °F 93% 29.96 in 4.0 mi West 4.6 mph - N/A   Overcast
4:55 AM 37.4 °F 30.8 °F 35.6 °F 93% 29.97 in 3.0 mi WNW 9.2 mph - N/A   Mostly Cloudy
5:15 AM 37.4 °F 31.4 °F 37.4 °F 100% 29.98 in 3.0 mi NNW 8.1 mph - N/A   Scattered Clouds
5:35 AM 35.6 °F 32.8 °F 35.6 °F 100% 29.98 in 3.0 mi North 3.5 mph - N/A   Mostly Cloudy
5:55 AM 37.4 °F 33.8 °F 37.4 °F 100% 29.98 in 2.5 mi NNE 4.6 mph - N/A   Overcast
6:15 AM 37.4 °F - 37.4 °F 100% 29.99 in 2.0 mi Calm Calm - N/A   Overcast
6:35 AM 37.4 °F 31.4 °F 37.4 °F 100% 30.00 in 2.5 mi North 8.1 mph - N/A   Overcast
6:55 AM 37.4 °F 32.1 °F 37.4 °F 100% 30.00 in 3.0 mi North 6.9 mph - N/A   Overcast
7:15 AM 37.4 °F 29.8 °F 37.4 °F 100% 30.00 in 3.0 mi NNW 11.5 mph - N/A   Mostly Cloudy
7:35 AM 39.2 °F 34.2 °F 37.4 °F 93% 30.01 in 2.5 mi NNW 6.9 mph - N/A   Partly Cloudy
7:55 AM 37.4 °F 33.8 °F 37.4 °F 100% 30.01 in 2.0 mi NW 4.6 mph - N/A   Scattered Clouds
8:15 AM 39.2 °F - 37.4 °F 93% 30.02 in 2.0 mi Calm Calm - N/A   Overcast
8:35 AM 39.2 °F - 39.2 °F 100% 30.03 in 3.0 mi Calm Calm - N/A   Mostly Cloudy
8:55 AM 41.0 °F - 39.2 °F 93% 30.04 in 4.0 mi Calm Calm - N/A   Partly Cloudy
9:15 AM 42.8 °F - 41.0 °F 93% 30.04 in 4.0 mi Calm Calm - N/A   Clear
9:35 AM 46.4 °F 45.2 °F 41.0 °F 81% 30.04 in 5.0 mi NW 3.5 mph - N/A   Clear
9:55 AM 48.2 °F - 44.6 °F 87% 30.03 in 5.0 mi North 5.8 mph - N/A   Clear
10:15 AM 50.0 °F - 46.4 °F 87% 30.04 in 5.0 mi Calm Calm - N/A   Haze
10:35 AM 53.6 °F - 46.4 °F 77% 30.03 in 6.0 mi NNW 3.5 mph - N/A   Haze
10:55 AM 55.4 °F - 48.2 °F 77% 30.03 in 6.0 mi Calm Calm - N/A   Haze
11:15 AM 57.2 °F - 48.2 °F 72% 30.02 in 6.0 mi SE 3.5 mph - N/A   Haze
11:35 AM 57.2 °F - 48.2 °F 72% 30.02 in 8.0 mi SSE 4.6 mph - N/A   Clear
11:55 AM 59.0 °F - 48.2 °F 67% 30.01 in 10.0 mi SE 5.8 mph - N/A   Clear
12:15 PM 60.8 °F - 48.2 °F 63% 30.00 in 10.0 mi South 5.8 mph - N/A   Clear
12:35 PM 62.6 °F - 48.2 °F 59% 29.99 in 10.0 mi South 6.9 mph - N/A   Clear
12:55 PM 62.6 °F - 48.2 °F 59% 29.97 in 10.0 mi SSE 5.8 mph - N/A   Clear
1:15 PM 64.4 °F - 48.2 °F 56% 29.96 in 10.0 mi SE 5.8 mph - N/A   Clear
1:35 PM 64.4 °F - 48.2 °F 56% 29.95 in 10.0 mi South 6.9 mph - N/A   Clear
1:55 PM 66.2 °F - 46.4 °F 49% 29.94 in 10.0 mi South 9.2 mph - N/A   Clear
2:15 PM 66.2 °F - 46.4 °F 49% 29.93 in 10.0 mi SSE 6.9 mph - N/A   Clear
2:35 PM 66.2 °F - 44.6 °F 46% 29.92 in 10.0 mi SE 8.1 mph - N/A   Clear
2:55 PM 68.0 °F - 44.6 °F 43% 29.91 in 10.0 mi SSE 12.7 mph - N/A   Clear
3:15 PM 68.0 °F - 44.6 °F 43% 29.90 in 10.0 mi SSE 12.7 mph 17.3 mph N/A   Clear
3:55 PM 69.8 °F - 41.0 °F 35% 29.91 in 10.0 mi South 13.8 mph - N/A   Clear
4:15 PM 68.0 °F - 42.8 °F 40% 29.90 in 10.0 mi SSE 12.7 mph - N/A   Clear
4:35 PM 66.2 °F - 42.8 °F 43% 29.90 in 10.0 mi SSE 9.2 mph - N/A   Clear
4:55 PM 64.4 °F - 44.6 °F 49% 29.90 in 10.0 mi SSE 6.9 mph - N/A   Clear
5:15 PM 62.6 °F - 44.6 °F 52% 29.90 in 10.0 mi SSE 5.8 mph - N/A   Clear
5:35 PM 60.8 °F - 42.8 °F 52% 29.90 in 10.0 mi SE 5.8 mph - N/A   Clear
5:55 PM 59.0 °F - 42.8 °F 55% 29.90 in 10.0 mi SE 4.6 mph - N/A   Clear
6:15 PM 57.2 °F - 42.8 °F 59% 29.89 in 10.0 mi SE 5.8 mph - N/A   Clear
6:35 PM 57.2 °F - 41.0 °F 55% 29.89 in 10.0 mi SSE 5.8 mph - N/A   Clear
6:55 PM 55.4 °F - 41.0 °F 58% 29.89 in 10.0 mi SE 6.9 mph - N/A   Clear
7:15 PM 57.2 °F - 39.2 °F 51% 29.88 in 10.0 mi SE 10.4 mph - N/A   Clear
7:35 PM 57.2 °F - 41.0 °F 55% 29.87 in 10.0 mi SE 9.2 mph - N/A   Clear
7:55 PM 57.2 °F - 42.8 °F 59% 29.86 in 10.0 mi SE 9.2 mph - N/A   Clear
8:15 PM 59.0 °F - 44.6 °F 59% 29.85 in 10.0 mi SSE 11.5 mph - N/A   Clear
8:35 PM 59.0 °F - 46.4 °F 63% 29.84 in 10.0 mi SSE 11.5 mph - N/A   Clear
8:55 PM 59.0 °F - 48.2 °F 67% 29.84 in 10.0 mi SE 13.8 mph - N/A   Clear
9:15 PM 59.0 °F - 50.0 °F 72% 29.83 in 10.0 mi SE 11.5 mph - N/A   Clear
9:35 PM 60.8 °F - 53.6 °F 77% 29.84 in 10.0 mi SSE 12.7 mph 17.3 mph N/A   Clear
9:55 PM 60.8 °F - 53.6 °F 77% 29.83 in 10.0 mi SSE 12.7 mph - N/A   Clear
10:15 PM 59.0 °F - 53.6 °F 82% 29.83 in 10.0 mi SSE 11.5 mph - N/A   Clear
10:55 PM 62.6 °F - 55.4 °F 77% 29.82 in 10.0 mi SSE 13.8 mph - N/A   Clear
11:15 PM 62.6 °F - 55.4 °F 77% 29.82 in 10.0 mi SSE 12.7 mph - N/A   Clear
11:35 PM 62.6 °F - 55.4 °F 77% 29.82 in 10.0 mi SSE 13.8 mph - N/A   Clear
11:55 PM 62.6 °F - 55.4 °F 77% 29.82 in 10.0 mi SSE 13.8 mph - N/A   Clear